Ilaisa Nakaci

Olheiro-Chefe - Nadi
2 Jul 2028
Domingo
Processo

Personalidade

Adaptabilidade (18) Ambição (13) Controvérsia (4) Lealdade (10) Pressão (5) Profissionalismo (6) Espírito Esportivo (8) Temperamento (5)

Perfil

Estilo de Treinamento Democrático
Licença Nacional A
Determinação 7
Gestão de Pessoas 4
Motivação 6
Disciplina 1
Satisfação no Trabalho
100%
Fadiga
0%
Função Olheiro-Chefe
Salário 4.7K p/s
Contrato 14.03.2030

Desempenho

Comportamento Bom
Eficácia do Treinamento
14%
Desenvolvimento do Jogador
20%
Prevenção de Lesões
10%
Implementação Tática
5%

Eventos Recentes

Participou de uma reunião de recrutamento agora
Avaliou um jogador agora
Avaliou um jogador agora
Avaliou um jogador agora
Avaliou um jogador agora
Avaliou um jogador agora
Avaliou um jogador agora
Avaliou um jogador agora

Monitorando agora

435
Jogador Clube Status Habilidade Confiança Observado Última observação Último voto
Paris Domfeh Auckland City Ativo 83 / 86 40% 10 01.07.2028 -
Matt Dench Perth Glory Ativo 108 / 101 40% 13 01.07.2028 -
Behruz Soatov Rewa Ativo 77 / 62 40% 13 30.06.2028 -
Nabil Begg Ba Ativo 52 / 62 40% 4 30.06.2028 -
Barrie Limoki Nadroga Ativo 86 / 64 40% 5 30.06.2028 -
Vanja Ilić Navbahor Ativo 95 / 95 40% 2 30.06.2028 -
G'anisher Qodirov Shortan Ativo 99 / 91 40% 21 29.06.2028 -
Kosta Just Hawke's Bay United Ativo 77 / 83 40% 2 29.06.2028 -
Anthony Didulica Perth Glory Ativo 96 / 101 40% 6 29.06.2028 -
Frans Deli Auckland FC Ativo 85 / 88 40% 2 29.06.2028 -
Joe Knowles Auckland FC Ativo 87 / 99 40% 2 29.06.2028 -
Achmad Iqbal Bachtiar Semen Padang Ativo 60 / 79 40% 1 29.06.2028 -
Abdulaziz Al-Hadhood Okzhetpes Ativo 94 / 78 40% 6 28.06.2028 -
Jack Wale Navua Ativo 69 / 49 40% 3 28.06.2028 -
Dyllan Bustamante Omiya Ardija Ativo 91 / 84 40% 1 28.06.2028 -
Usman Sadiq Lokomotiv Ativo 66 / 74 40% 1 28.06.2028 -
Haruna Attah AGMK Ativo 76 / 80 40% 5 27.06.2028 -
Neemish Prasad Rewa Ativo 50 / 71 40% 5 26.06.2028 -
Francis Boxall Canterbury United Ativo 70 / 79 40% 2 26.06.2028 -
Septian David Maluku Utara United Ativo 62 / 68 40% 6 25.06.2028 -
Marco Nelson Canterbury United Ativo 59 / 82 40% 1 25.06.2028 -
Sairusi Nalaubu Lautoka Ativo 66 / 84 40% 11 24.06.2028 -
Raia Irvanza Akzhaiyk Ativo 70 / 57 40% 2 24.06.2028 -
Lawrence Wong Newcastle Jets Ativo 101 / 108 40% 3 24.06.2028 -
Owen Kirwan Waitakere United Ativo 60 / 80 40% 1 24.06.2028 -
Joe Lacey Sydney FC Ativo 85 / 100 40% 5 21.06.2028 -
Aphile Ngobese Aktobe Ativo 96 / 95 40% 5 21.06.2028 -
Iowane Matanisiga Labasa Ativo 82 / 75 40% 4 21.06.2028 -
Andhika Ramadhani Persik Ativo 54 / 76 40% 2 21.06.2028 -
Yuda Editya Madura United Ativo 84 / 66 40% 5 20.06.2028 -
José Meza Bhayangkara Presisi Ativo 60 / 62 40% 2 20.06.2028 -
Yacob Sayuri Maluku Utara United Ativo 96 / 69 40% 9 20.06.2028 -
Islambek Kuat Akzhaiyk Ativo 73 / 86 40% 4 20.06.2028 -
Dimas Drajad Persib Ativo 93 / 69 40% 6 19.06.2028 -
Callum McCowatt WaiBOP United Ativo 70 / 69 40% 2 19.06.2028 -
Lucas Scicluna Perth Glory Ativo 73 / 99 40% 8 18.06.2028 -
Nadeo Argawinata Persija Ativo 88 / 70 40% 2 17.06.2028 -
Michael Lockyer Canterbury United Ativo 90 / 77 40% 5 17.06.2028 -
Etonia Dogalau Ba Ativo 64 / 69 40% 14 16.06.2028 -
Saidu Lawan Dewa United Ativo 75 / 76 40% 8 16.06.2028 -
Humoyunshoh Sayyotov Qizilqum Ativo 103 / 92 40% 3 16.06.2028 -
Richard Monday Ubong Vissel Kobe Ativo 61 / 92 40% 12 15.06.2028 -
George Plusnin Brisbane Roar Ativo 82 / 88 40% 4 15.06.2028 -
Luke Vickery Macarthur FC Ativo 91 / 100 40% 20 14.06.2028 -
Adhamjon Musulmonov Shortan Ativo 101 / 84 40% 2 14.06.2028 -
James Nieuwenhuizen Melbourne City Ativo 96 / 87 40% 1 14.06.2028 -
O'ktamjon Abdumalikov Kokand 1912 Ativo 90 / 83 40% 13 13.06.2028 -
Septian Bagaskara PSM Ativo 87 / 68 40% 5 13.06.2028 -
Joseph Ogenda Atyrau Ativo 82 / 78 40% 5 13.06.2028 -
Xolani Tshaka Astana Ativo 54 / 68 40% 4 13.06.2028 -
Harrison Devenish-Meares Western Sydney Wanderers Ativo 106 / 101 40% 1 13.06.2028 -
Mohammed Alam Lautoka Ativo 43 / 46 40% 8 12.06.2028 -
Kosta Bell Southern United Ativo 52 / 73 40% 3 12.06.2028 -
Zilkifilu Rabiu Pakhtakor Ativo 99 / 88 40% 6 11.06.2028 -
Axel Bakoude Hapoel Kiryat Shmona Ativo 58 / 68 40% 1 11.06.2028 -
Mishal Saad Hapoel Raanana Ativo 66 / 91 40% 5 07.06.2028 -
Reuben Otieno Neftchi Ativo 64 / 73 40% 8 07.06.2028 -
Vlatko Stojanovski Mashal Ativo 102 / 83 40% 2 07.06.2028 -
Jayson Nettey Hapoel Kfar Saba Ativo 69 / 73 40% 5 06.06.2028 -
Ryan Kurnia Bhayangkara Presisi Ativo 69 / 81 40% 4 05.06.2028 -
Bernard Bukari Macarthur FC Ativo 74 / 58 40% 10 05.06.2028 -
Success Makanjuola Adelaide United Ativo 83 / 98 40% 4 05.06.2028 -
Michael Garbett Hawke's Bay United Ativo 67 / 75 40% 1 05.06.2028 -
Niv Tubul Hapoel Kfar Saba Ativo 78 / 72 40% 5 04.06.2028 -
Fareed Sadat Bhayangkara Presisi Ativo 82 / 90 40% 5 04.06.2028 -
Sunday Ahile Semen Padang Ativo 75 / 81 40% 1 04.06.2028 -
Sergio Villalpando Kawasaki Frontale Ativo 98 / 90 40% 1 03.06.2028 -
Tim Lewis Canterbury United Ativo 61 / 85 40% 2 02.06.2028 -
Kristian Popovic Central Coast Mariners Ativo 104 / 90 40% 4 02.06.2028 -
Jayden Smith Wellington Phoenix Ativo 104 / 94 40% 11 01.06.2028 -
Aqil Savik Bhayangkara Presisi Ativo 93 / 64 40% 6 01.06.2028 -
Jonathan Mairiga Bunyodkor Ativo 74 / 69 40% 2 01.06.2028 -
Akam Moses PSIM Ativo 77 / 63 40% 1 01.06.2028 -
Carlos Campos Albirex Niigata Ativo 71 / 113 40% 3 31.05.2028 -
Mayed Muhsin Atyrau Ativo 71 / 77 40% 3 31.05.2028 -
Ozodbek Marufov Nadroga Ativo 58 / 67 40% 9 30.05.2028 -
Andrian Casvari Arema Ativo 51 / 57 40% 5 30.05.2028 -
Christian Gray Auckland City Ativo 98 / 90 40% 4 30.05.2028 -
Isaac Frimpong Sanfrecce Hiroshima Ativo 95 / 81 40% 2 30.05.2028 -
James Hilton Macarthur FC Ativo 71 / 83 40% 7 29.05.2028 -
Areya Prasad Auckland City Ativo 54 / 58 40% 4 29.05.2028 -
Andro Giorgadze Kokand 1912 Ativo 108 / 90 40% 3 29.05.2028 -
Nūrbergen Nūrbol Zhetysu Ativo 81 / 71 40% 5 28.05.2028 -
Kamronbek Hamroyev Mashal Ativo 85 / 87 40% 6 27.05.2028 -
Daniel Cohen Maccabi Netanya Ativo 88 / 85 40% 2 26.05.2028 -
Lachie Charles Maccabi Netanya Ativo 101 / 86 40% 8 26.05.2028 -
Bobomurod Bozorov Qizilqum Ativo 86 / 69 40% 3 26.05.2028 -
Zacharie Ebogo Adelaide United Ativo 81 / 76 40% 3 26.05.2028 -
Shota Uchiyama Albirex Niigata Ativo 99 / 91 40% 6 25.05.2028 -
Nikita Shevchenko Lokomotiv Rejeitado 106 / 88 40% 3 25.05.2028 Rejeitar
Koko Araya Persebaya Ativo 69 / 81 40% 2 25.05.2028 -
Farruhjon Qodirov Bukhara Ativo 68 / 88 40% 6 24.05.2028 -
Erkebūlan Rakhmetulla Atyrau Ativo 90 / 72 40% 4 24.05.2028 -
Deklan Nelson Hawke's Bay United Ativo 75 / 59 40% 1 24.05.2028 -
Patrick Joseph Ba Ativo 57 / 64 40% 2 23.05.2028 -
Alexey Baranov Obod Ativo 80 / 82 40% 7 23.05.2028 -
Theo Numberi Dewa United Ativo 92 / 83 40% 4 23.05.2028 -
Siyabonga Mkhize Avispa Fukuoka Ativo 67 / 71 40% 1 23.05.2028 -
Grigol Chabradze Qizilqum Ativo 72 / 72 40% 4 22.05.2028 -
Lyle Chatburn Auckland City Ativo 90 / 92 40% 4 21.05.2028 -
Khulekani Kubheka PSIM Ativo 117 / 94 40% 4 21.05.2028 -
Khaled Kamal Ba Ativo 80 / 89 40% 11 21.05.2028 -
Joeli Ranitu Suva Ativo 49 / 55 40% 2 21.05.2028 -
Jens Raven Bali United Ativo 87 / 55 40% 3 21.05.2028 -
Noah Wood Canterbury United Ativo 75 / 72 40% 1 21.05.2028 -
Eldor Adhamov Sogdiana Ativo 75 / 93 40% 1 21.05.2028 -
Israel Monga Adelaide United Ativo 77 / 84 40% 8 20.05.2028 -
Talgat Nurgaliev Akzhaiyk Ativo 104 / 82 40% 4 20.05.2028 -
Akromjon Komilov Nasaf Ativo 111 / 90 40% 1 20.05.2028 -
Sheva Sanggasi Persijap Ativo 49 / 45 40% 2 19.05.2028 -
Sanzhar Kemelbek Taraz Ativo 93 / 100 40% 3 19.05.2028 -
Göktan Cörüt Gamba Osaka Ativo 88 / 88 40% 3 19.05.2028 -
Umidjon Hamroyev Lokomotiv Ativo 78 / 88 40% 1 17.05.2028 -
Asilbek No'monov Nasaf Ativo 88 / 68 40% 8 16.05.2028 -
Sūltan Shymyrkhan Shakhter Ativo 76 / 62 40% 10 16.05.2028 -
Imanol García Persik Ativo 81 / 99 40% 1 16.05.2028 -
Ergash Ismoilov Mashal Ativo 81 / 91 40% 7 15.05.2028 -
Awan Setho Bhayangkara Presisi Ativo 87 / 80 40% 2 15.05.2028 -
Fabby Clark Metallurg Ativo 91 / 90 40% 2 15.05.2028 -
Richard Nkomo Newcastle Jets Ativo 79 / 90 40% 12 14.05.2028 -
Tomás Leuzzi Vegalta Sendai Ativo 102 / 76 40% 3 13.05.2028 -
Ben Mewett Western Sydney Wanderers Ativo 68 / 87 40% 13 13.05.2028 -
Yamato Naito Ventforet Kofu Ativo 76 / 71 40% 6 12.05.2028 -
Riley Foxe Perth Glory Ativo 101 / 91 40% 2 10.05.2028 -
Fabien Adikiny Okzhetpes Ativo 76 / 84 40% 2 10.05.2028 -
Ibrahim Adel Sydney FC Ativo 72 / 94 40% 1 10.05.2028 -
Muhammad Iqbal PSIM Ativo 67 / 69 40% 1 10.05.2028 -
Davel Damen Akzhaiyk Ativo 96 / 95 40% 3 09.05.2028 -
Abhishek Deo Tailevu Naitasiri Ativo 60 / 64 40% 2 09.05.2028 -
Kishan Sami Ba Ativo 73 / 58 40% 7 07.05.2028 -
Daichi Suzuki Sagan Tosu Ativo 97 / 80 40% 8 07.05.2028 -
Joel Bertolissio Newcastle Jets Ativo 97 / 93 40% 2 07.05.2028 -
Hokky Caraka Dewa United Ativo 52 / 69 40% 3 07.05.2028 -
Farel Putra Wardani Semen Padang Ativo 44 / 73 40% 1 07.05.2028 -
Leon Kofana Rewa Ativo 83 / 62 40% 8 06.05.2028 -
Nathan Paull Macarthur FC Ativo 110 / 103 40% 8 06.05.2028 -
Britton Fischer Albirex Niigata Ativo 106 / 89 40% 8 05.05.2028 -
Abongwe Newman Lautoka Ativo 75 / 68 40% 9 04.05.2028 -
Wahyudi Hamisi Persijap Ativo 96 / 72 40% 8 04.05.2028 -
Joshua Inserra Melbourne Victory Ativo 97 / 96 40% 6 03.05.2028 -
Zaharaddeen Bello Hawke's Bay United Ativo 74 / 94 40% 3 03.05.2028 -
Yoav Dejaldeti Bnei Yehuda Ativo 59 / 71 40% 2 03.05.2028 -
Dylan Tevreden Gamba Osaka Ativo 75 / 86 40% 1 03.05.2028 -
Wasi Ngala Zhetysu Ativo 48 / 52 40% 3 02.05.2028 -
Arkhan Kaka Persis Ativo 76 / 98 40% 1 02.05.2028 -
Shohruh Eshbo'tayev Shortan Rejeitado 100 / 92 40% 4 01.05.2028 Observar
Federico Bonetto Melbourne City Ativo 80 / 89 40% 3 30.04.2028 -
Nūrbol Anuarbekov Zhetysu Ativo 79 / 74 40% 1 30.04.2028 -
Habibi Jusuf Borneo Ativo 85 / 82 40% 8 28.04.2028 -
Reagan Ogle Melbourne City Ativo 78 / 88 40% 4 28.04.2028 -
Jose Saldamando Shonan Bellmare Ativo 102 / 91 40% 2 28.04.2028 -
Rauof Jbareen Hapoel Acre Ativo 75 / 90 40% 2 28.04.2028 -
Chinanu Victor Rewa Ativo 67 / 80 40% 13 27.04.2028 -
Abdulganeey Teslim Maluku Utara United Ativo 64 / 78 40% 1 26.04.2028 -
Tomer Darzi Beitar Jerusalem Ativo 87 / 67 40% 1 26.04.2028 -
Tyler Williams Sydney FC Ativo 67 / 92 40% 3 25.04.2028 -
Keisuke Sato Ventforet Kofu Ativo 117 / 82 40% 3 25.04.2028 -
Diego Latorre Sagan Tosu Ativo 104 / 99 40% 1 25.04.2028 -
Hanif Sjahbandi Persib Ativo 63 / 74 40% 1 25.04.2028 -
Orlando Thorpe Nasaf Ativo 68 / 63 40% 2 24.04.2028 -
Hojiakbar Mamurov Mashal Ativo 38 / 73 40% 2 23.04.2028 -
Isroiljon Tursunboyev Metallurg Ativo 58 / 71 40% 3 23.04.2028 -
Josaia Sela Lautoka Ativo 45 / 50 40% 1 23.04.2028 -
Wataru Kamijo Sydney FC Ativo 90 / 89 40% 5 22.04.2028 -
Deklan Van Hattum Waitakere United Ativo 70 / 73 40% 3 22.04.2028 -
Alex Nelson Navbahor Ativo 56 / 86 40% 2 22.04.2028 -
Adam Bell Auckland City Ativo 70 / 80 40% 10 21.04.2028 -
Kayne Razmovski Rewa Ativo 78 / 59 40% 12 21.04.2028 -
Muslimbek Habibullayev Navbahor Ativo 60 / 97 40% 2 21.04.2028 -
Ravid Olezki Hapoel Tel Aviv Ativo 77 / 83 40% 1 20.04.2028 -
Prince Kallon PSM Ativo 78 / 83 40% 1 20.04.2028 -
Rafael Andrade Rewa Ativo 55 / 63 40% 8 19.04.2028 -
Bradley Tapp Central Coast Mariners Ativo 112 / 98 40% 3 19.04.2028 -
Muhannad Barah Okzhetpes Ativo 55 / 66 40% 5 18.04.2028 -
Simione Nabenu Suva Ativo 69 / 60 40% 7 18.04.2028 -
Dostonbek To'xtaboyev Mashal Ativo 70 / 72 40% 4 18.04.2028 -
Azamat Soyibov Kokand 1912 Ativo 105 / 98 40% 3 18.04.2028 -
Juni Antara Bhayangkara Presisi Ativo 65 / 75 40% 1 18.04.2028 -
Jake Barbarouses Canterbury United Ativo 69 / 67 40% 5 17.04.2028 -
Daniel Fainaro Hapoel Kfar Saba Ativo 87 / 68 40% 1 17.04.2028 -
Luka Vicelich Adelaide United Ativo 89 / 99 40% 1 17.04.2028 -
Nūraidar Äskerbek Taraz Ativo 53 / 63 40% 6 16.04.2028 -
Raymond Matlamela Rewa Ativo 70 / 81 40% 4 16.04.2028 -
Sūltan Būsyrmanov Tobol Ativo 68 / 75 40% 2 16.04.2028 -
Talal Al-Salem Atyrau Ativo 57 / 68 40% 1 16.04.2028 -
Hilman Syah PSM Ativo 68 / 66 40% 2 14.04.2028 -
Yehonatan Segev Maccabi Petach Tikva Ativo 78 / 88 40% 1 14.04.2028 -
Valentín Morelini Bhayangkara Presisi Ativo 66 / 73 40% 5 13.04.2028 -
Roy Buganim Hapoel Kfar Saba Ativo 57 / 87 40% 6 11.04.2028 -
Rendy Oscario Semen Padang Ativo 78 / 66 40% 5 11.04.2028 -
Mxolisi Bhengu Kokand 1912 Ativo 86 / 75 40% 2 11.04.2028 -
Cristian Toledo Brisbane Roar Ativo 90 / 100 40% 1 10.04.2028 -
Askhat Suyumbayev Zhetysu Ativo 103 / 94 40% 2 09.04.2028 -
Reza Arya Pratama Persebaya Ativo 70 / 67 40% 7 08.04.2028 -
Tzuri Zeituni Maccabi Netanya Ativo 73 / 76 40% 3 08.04.2028 -
Owen Lockyer Waitakere United Ativo 75 / 64 40% 6 08.04.2028 -
Diesel Herrington Central Coast Mariners Ativo 99 / 93 40% 2 08.04.2028 -
Ilham Udin Armayn PSBS Biak Ativo 103 / 69 40% 6 06.04.2028 -
Dane Barbarouses Southern United Ativo 59 / 73 40% 5 05.04.2028 -
Will McKay Macarthur FC Ativo 76 / 79 40% 4 03.04.2028 -
Ellis Spikner Hapoel Acre Ativo 72 / 75 40% 5 03.04.2028 -
Lebogang Mswane Hapoel Beer Sheva Ativo 100 / 95 40% 1 03.04.2028 -
Oran Shoval Beitar Jerusalem Ativo 73 / 89 40% 2 02.04.2028 -
Alex Guaricuyu Kawasaki Frontale Ativo 81 / 95 40% 1 01.04.2028 -
Seth Clark Sydney FC Ativo 85 / 95 40% 5 31.03.2028 -
Jordan Holmes Western Sydney Wanderers Ativo 88 / 100 40% 4 31.03.2028 -
Bill Singh Bnei Yehuda Ativo 47 / 74 40% 1 31.03.2028 -
Jesse Gewer AGMK Ativo 83 / 82 40% 3 30.03.2028 -
Maximiliano de los Santos Brisbane Roar Ativo 87 / 89 40% 1 30.03.2028 -
Theo Leeming Persija Ativo 85 / 77 40% 1 30.03.2028 -
Stanislav Samoilov Zhetysu Ativo 90 / 79 40% 2 29.03.2028 -
Felipe Fuentes Bnei Yehuda Ativo 79 / 71 40% 3 29.03.2028 -
Kauã Rodrigo Macarthur FC Ativo 86 / 75 40% 4 28.03.2028 -
Harlan Suardi Bhayangkara Presisi Ativo 94 / 81 40% 4 26.03.2028 -
Stefan McCowatt Hawke's Bay United Ativo 84 / 86 40% 4 24.03.2028 -
Ryan Barbarouses Canterbury United Ativo 76 / 63 40% 3 24.03.2028 -
Abdul Rahman PSM Ativo 50 / 71 40% 4 23.03.2028 -
Danil Podymskii Zhetysu Ativo 84 / 79 40% 3 23.03.2028 -
Oussama Fatmi Lautoka Ativo 80 / 77 40% 18 21.03.2028 -
Tom Rostovsky Hapoel Raanana Ativo 60 / 69 40% 2 21.03.2028 -
Jayden Necovski Bunyodkor Ativo 83 / 98 40% 1 21.03.2028 -
Ibrohim G'anixonov Mashal Ativo 59 / 84 40% 1 20.03.2028 -
Abdurahmon Komilov Andijon Ativo 98 / 100 40% 1 19.03.2028 -
Muhamad Riyandi Dewa United Ativo 84 / 74 40% 2 18.03.2028 -
Saar Schwartz Hapoel Acre Ativo 54 / 69 40% 4 16.03.2028 -
Noah McCann Central Coast Mariners Ativo 81 / 76 40% 5 13.03.2028 -
Ido Vayer Hapoel Kiryat Shmona Ativo 88 / 106 40% 1 13.03.2028 -
Oscar Page Brisbane Roar Ativo 69 / 93 40% 3 12.03.2028 -
Ruxi Madura United Ativo 106 / 90 40% 1 12.03.2028 -
Ko Shimura Sagan Tosu Ativo 71 / 89 40% 2 10.03.2028 -
Maro Edirin Ventforet Kofu Ativo 55 / 64 40% 1 10.03.2028 -
Anvar Murodov Metallurg Ativo 69 / 71 40% 1 05.03.2028 -
Amirbek Saidov Bukhara Ativo 91 / 96 40% 1 05.03.2028 -
James Lockyer Hawke's Bay United Ativo 67 / 72 40% 1 05.03.2028 -
Viktor Ziabko Okzhetpes Ativo 72 / 82 40% 3 04.03.2028 -
Sani Rizki PSBS Biak Ativo 83 / 84 40% 1 03.03.2028 -
Mohammad Khanafi PSM Ativo 53 / 55 40% 1 01.03.2028 -
Chris Van Hattum Southern United Ativo 70 / 75 40% 4 29.02.2028 -
Shaxboz Jurayev Mashal Ativo 60 / 69 40% 2 29.02.2028 -
Umid Urunov Obod Ativo 75 / 75 40% 3 27.02.2028 -
Ben van Dorssen Ba Ativo 84 / 77 40% 3 24.02.2028 -
Dendy Sulistyawan Bhayangkara Presisi Ativo 85 / 94 40% 2 22.02.2028 -
Matías Nicosia Central Coast Mariners Ativo 90 / 88 40% 2 22.02.2028 -
Feby Eka Putra Persis Ativo 73 / 96 40% 1 21.02.2028 -
Maicon Silva Semen Padang Ativo 88 / 82 40% 6 17.02.2028 -
Aji Kusuma Madura United Ativo 61 / 67 40% 2 16.02.2028 -
Sardor Tukhtasinov Obod Ativo 70 / 77 40% 1 16.02.2028 -
Akmal Nematov Obod Ativo 82 / 78 40% 1 15.02.2028 -
Dias Orynbasar Atyrau Ativo 94 / 75 40% 1 15.02.2028 -
Daffa Fasya Borneo Ativo 72 / 47 40% 2 11.02.2028 -
Shivam Shandil Nasinu Ativo 59 / 45 40% 1 11.02.2028 -
Takumi Yasuno Vegalta Sendai Ativo 94 / 64 40% 1 10.02.2028 -
Jahongir Mamatqulov Qizilqum Ativo 80 / 70 40% 5 08.02.2028 -
Saian Mūqanov Okzhetpes Ativo 97 / 81 40% 1 08.02.2028 -
Feyzo Kasumović Adelaide United Ativo 97 / 90 40% 6 07.02.2028 -
Abdoulaye Cissé Tobol Ativo 107 / 113 40% 1 07.02.2028 -
Sherzod Akhmedov Obod Ativo 63 / 93 40% 1 06.02.2028 -
Rustam Nartajiyev Kokand 1912 Ativo 80 / 85 40% 5 05.02.2028 -
Matlahatsi Mampane Lautoka Ativo 76 / 93 40% 2 04.02.2028 -
Avazxon Mamatxo'jayev Mashal Ativo 86 / 92 40% 6 03.02.2028 -
Samandar Ochilov Mashal Ativo 96 / 75 40% 4 03.02.2028 -
Ryan De Vries Waitakere United Ativo 46 / 52 40% 1 03.02.2028 -
Vladimir Vomenko Okzhetpes Ativo 78 / 87 40% 5 02.02.2028 -
Milai Perrot Dewa United Ativo 58 / 63 40% 4 01.02.2028 -
Miraziz Mahamadaliyev Andijon Ativo 66 / 70 40% 3 29.01.2028 -
Matt Garbett Southern United Ativo 83 / 88 40% 1 27.01.2028 -
Frets Butuan Maluku Utara United Ativo 97 / 59 40% 4 25.01.2028 -
Darold Kakasi Ba Ativo 82 / 61 40% 4 24.01.2028 -
Timur Suyunov Obod Ativo 92 / 78 40% 2 23.01.2028 -
Ricky Kambuaya Dewa United Ativo 78 / 93 40% 3 21.01.2028 -
Amit Harel Bnei Yehuda Ativo 52 / 80 40% 3 20.01.2028 -
Shivam Naidu Lautoka Ativo 61 / 64 40% 4 19.01.2028 -
Armando Oropa Semen Padang Ativo 71 / 55 40% 3 18.01.2028 -
Mark Isozaki Omiya Ardija Ativo 83 / 88 40% 3 17.01.2028 -
Samandar Toirov Nasaf Ativo 54 / 65 40% 1 16.01.2028 -
Sam Tuiloma Waitakere United Ativo 55 / 55 40% 3 14.01.2028 -
Sitiveni Rakai Labasa Ativo 65 / 52 40% 2 13.01.2028 -
Aporosa Yada Labasa Ativo 83 / 65 40% 3 10.01.2028 -
Suhrob Eshboyev Qizilqum Ativo 102 / 86 40% 1 09.01.2028 -
Ädilkhan Taňzharyqov Tobol Ativo 107 / 90 40% 3 06.01.2028 -
Isikeli Sevanaia Rewa Ativo 45 / 50 40% 4 05.01.2028 -
Iqboljon Malikjonov Kokand 1912 Ativo 106 / 75 40% 3 01.01.2028 -
Iran Madura United Ativo 79 / 84 40% 2 30.12.2027 -
Sahar Hershkovich Bnei Yehuda Ativo 71 / 82 40% 2 30.12.2027 -
Erkebūlan Toibekov Taraz Ativo 99 / 85 40% 2 26.12.2027 -
Ginanjar Wahyu Bhayangkara Presisi Ativo 59 / 54 40% 2 26.12.2027 -
Älisher Sulei Taraz Ativo 98 / 96 40% 3 24.12.2027 -
Oliver Lavale Sydney FC Ativo 97 / 98 40% 1 24.12.2027 -
Marko Živanović Akzhaiyk Ativo 79 / 81 40% 1 22.12.2027 -
Or Yitzhak Bnei Yehuda Ativo 69 / 74 40% 4 19.12.2027 -
Setareki Hughes Rewa Ativo 86 / 53 40% 5 18.12.2027 -
Doniyor Narzullayev Shortan Ativo 78 / 90 40% 2 18.12.2027 -
Owen Lewis Southern United Ativo 55 / 57 40% 2 17.12.2027 -
Luka Marijanović Wellington Phoenix Ativo 62 / 65 40% 1 17.12.2027 -
Rosyad Setiawan Semen Padang Ativo 61 / 71 40% 4 14.12.2027 -
Asror G'ofurov Qizilqum Ativo 105 / 96 40% 2 14.12.2027 -
Make Aldo Maulidino PSIM Ativo 55 / 75 40% 5 11.12.2027 -
Mendonça Madura United Ativo 91 / 91 40% 3 09.12.2027 -
Islom Sharipov Mashal Ativo 85 / 98 40% 6 08.12.2027 -
Ryan Kalms Melbourne City Ativo 97 / 92 40% 5 04.12.2027 -
Ashnil Raju Labasa Ativo 44 / 61 40% 1 30.11.2027 -
Dane Kirwan Hawke's Bay United Ativo 59 / 77 40% 1 30.11.2027 -
Jeremy Foo Auckland City Ativo 81 / 92 40% 1 29.11.2027 -
Yonatan Shani Hapoel Beer Sheva Ativo 93 / 74 40% 6 27.11.2027 -
Rakan Al-Kaabi PSBS Biak Ativo 49 / 56 40% 2 27.11.2027 -
Kou Gotou Shakhter Ativo 105 / 85 40% 5 20.11.2027 -
Shahzod Turopov Qizilqum Ativo 91 / 69 40% 4 20.11.2027 -
Andrei Smolov Obod Ativo 97 / 84 40% 1 20.11.2027 -
Zakhar Porokh Okzhetpes Ativo 80 / 81 40% 1 19.11.2027 -
Jake Garbett Southern United Ativo 51 / 58 40% 1 18.11.2027 -
Davronbek Usmonov Nasaf Ativo 107 / 83 40% 1 06.11.2027 -
Oliver Evans Perth Glory Ativo 89 / 94 40% 1 06.11.2027 -
Oko Onyedika Dewa United Ativo 94 / 72 40% 3 03.11.2027 -
Raheem Nugraha Ba Ativo 73 / 71 40% 6 03.11.2027 -
Hafizh Rizkianur Persija Ativo 33 / 66 40% 1 03.11.2027 -
Siyabonga Hlengwa Navua Ativo 85 / 84 40% 5 01.11.2027 -
Sardorbek Saidov Shortan Ativo 59 / 95 40% 2 01.11.2027 -
Samuel Navoce Labasa Ativo 45 / 69 40% 1 24.10.2027 -
Gavin Kwan Adsit Borneo Ativo 86 / 70 40% 4 23.10.2027 -
Hesham Shaaban Maccabi Haifa Ativo 86 / 65 40% 1 22.10.2027 -
Qobylandy Kamariden Okzhetpes Ativo 70 / 66 40% 1 21.10.2027 -
Ahmad Noviandani Madura United Ativo 88 / 74 40% 3 19.10.2027 -
Sardor Azimov Andijon Ativo 105 / 88 40% 1 18.10.2027 -
Buyung Ismu Lessy Persijap Ativo 87 / 83 40% 3 13.10.2027 -
Gianluca Pandeynuwu Persis Ativo 55 / 88 40% 3 07.10.2027 -
Callum De Vries WaiBOP United Ativo 59 / 64 40% 4 28.09.2027 -
Michael Barbarouses Hawke's Bay United Ativo 43 / 63 40% 1 21.09.2027 -
Sandro Embaló PSBS Biak Ativo 80 / 77 40% 2 17.09.2027 -
Yan Shicot Beitar Jerusalem Ativo 49 / 73 40% 2 16.09.2027 -
Oliver Dragićević Melbourne Victory Ativo 89 / 90 40% 3 14.09.2027 -
Yance Sayuri Maluku Utara United Ativo 86 / 88 40% 1 14.09.2027 -
Jefferson Persis Ativo 87 / 83 40% 2 11.09.2027 -
Alex Nunes Newcastle Jets Ativo 95 / 91 40% 3 10.09.2027 -
Guy Bar Hapoel Tel Aviv Ativo 49 / 60 40% 1 10.09.2027 -
Epeli Leiroti Lautoka Ativo 64 / 44 40% 2 07.09.2027 -
Raka Cahyana PSIM Ativo 45 / 52 40% 3 03.09.2027 -
Diky Indrayana Madura United Ativo 54 / 78 40% 2 31.08.2027 -
Nikita Karpenko Lautoka Ativo 51 / 50 40% 2 28.08.2027 -
Shalev Saadia Maccabi Tel Aviv Ativo 79 / 62 40% 1 16.08.2027 -
Deklan Wood Waitakere United Ativo 78 / 76 40% 1 15.08.2027 -
Riley Dalziell Auckland FC Ativo 99 / 84 40% 5 09.08.2027 -
Arian Pardo Adelaide United Ativo 79 / 98 40% 1 09.08.2027 -
Lucas Urán Sydney FC Ativo 79 / 94 40% 2 08.08.2027 -
Christopher Wasasala Labasa Ativo 73 / 62 40% 2 08.08.2027 -
Junior Mpanza Arema Ativo 85 / 59 40% 1 02.08.2027 -
Jai Singh Canterbury United Ativo 71 / 63 40% 1 30.07.2027 -
Yuval Kretzo Maccabi Petach Tikva Ativo 63 / 68 40% 8 25.07.2027 -
Wonderson Yakubu Hapoel Raanana Ativo 91 / 77 40% 11 23.07.2027 -
Miswar Saputra Madura United Ativo 61 / 94 40% 2 13.07.2027 -
Ben Cacace Hawke's Bay United Ativo 60 / 77 40% 1 13.07.2027 -
Macklin Freke Melbourne City Ativo 93 / 101 40% 1 08.07.2027 -
Joel Valdemarín Omiya Ardija Ativo 78 / 82 40% 1 01.07.2027 -
Rahul Naresh Ba Ativo 81 / 69 40% 1 25.06.2027 -
Toshikazu Teruuchi Urawa Reds Ativo 92 / 81 40% 7 22.06.2027 -
Steward Toata Nadroga Ativo 49 / 50 40% 1 22.06.2027 -
Tiago Quintal Sydney FC Ativo 99 / 98 40% 2 19.06.2027 -
Heri Susanto PSBS Biak Ativo 76 / 85 40% 1 18.06.2027 -
Zainal Ali Navua Ativo 41 / 69 40% 1 13.06.2027 -
Iosefo Verevou Tailevu Naitasiri Ativo 54 / 71 40% 1 12.06.2027 -
Walter Portillo Wellington Phoenix Ativo 76 / 74 40% 2 06.06.2027 -
Albert Nurullayev Bukhara Ativo 66 / 69 40% 1 06.06.2027 -
Anis Khemaissia Andijon Ativo 93 / 77 40% 1 04.06.2027 -
Azat Nurgaliev Akzhaiyk Ativo 80 / 80 40% 1 03.06.2027 -
Harrison Shillington Melbourne Victory Ativo 59 / 74 40% 5 02.06.2027 -
Matthew Charitar Navua Ativo 66 / 46 40% 1 30.05.2027 -
Sitiveni Cavuilagi Lautoka Ativo 78 / 62 40% 2 27.05.2027 -
Shaker Abu Husein Bnei Sakhnin Ativo 56 / 91 40% 1 23.05.2027 -
Tevita Waranaivalu Rewa Ativo 86 / 64 40% 2 20.05.2027 -
Akeimi Ralulu Labasa Ativo 43 / 61 40% 1 16.05.2027 -
Ravikash Krishna Tailevu Naitasiri Ativo 48 / 63 40% 1 10.05.2027 -
Arwin Javad Maluku Utara United Ativo 94 / 98 40% 2 07.05.2027 -
Leonardo Morales Jubilo Iwata Ativo 64 / 79 40% 1 06.05.2027 -
Zach Lisolajski Melbourne City Ativo 100 / 102 40% 4 04.05.2027 -
Manuel Aguilar Melbourne City Ativo 75 / 77 40% 2 02.05.2027 -
Ady Setiawan Dewa United Ativo 69 / 84 40% 1 28.04.2027 -
Jackson Izquierdo Jubilo Iwata Ativo 40 / 43 40% 1 28.04.2027 -
Vinal Prasad Navua Ativo 54 / 59 40% 1 20.04.2027 -
Filipe Baravilala Navua Ativo 42 / 48 40% 2 19.04.2027 -
Tamirlan Kozubaev Persita Ativo 97 / 101 40% 1 17.04.2027 -
Julio Pérez Sagan Tosu Ativo 56 / 95 40% 2 09.04.2027 -
Asilbek Tojiddinov Andijon Ativo 69 / 61 40% 1 08.04.2027 -
Yofandani Pranata Dewa United Ativo 72 / 66 40% 1 04.04.2027 -
Nicolás Paz Bnei Sakhnin Ativo 80 / 62 40% 1 02.04.2027 -
Víctor Barona Melbourne City Ativo 70 / 78 40% 2 25.03.2027 -
Adi Satryo Arema Ativo 55 / 72 40% 3 23.03.2027 -
Pablo Martínez Brisbane Roar Ativo 81 / 77 40% 1 23.03.2027 -
Joela Biuvanua Lautoka Ativo 50 / 54 40% 3 14.03.2027 -
Harel Goldenberg Hapoel Kiryat Shmona Ativo 54 / 81 40% 1 14.03.2027 -
Jack Warshawsky Melbourne Victory Ativo 100 / 81 40% 1 11.03.2027 -
Cahya Supriadi PSIM Ativo 68 / 52 40% 2 08.03.2027 -
Nicolas Riveros Maccabi Petach Tikva Ativo 80 / 91 40% 1 28.02.2027 -
Andrei Alba Persis Ativo 78 / 75 40% 1 23.02.2027 -
Sena Igarashi Vegalta Sendai Ativo 88 / 83 40% 1 20.02.2027 -
Borja Martínez Persijap Ativo 102 / 102 40% 1 16.02.2027 -
Murodjon Komilov Kokand 1912 Ativo 65 / 91 40% 1 15.02.2027 -
Akram Zbedat Bnei Sakhnin Ativo 50 / 67 40% 2 10.02.2027 -
Mihiro Sato Kashima Antlers Ativo 57 / 103 40% 1 08.02.2027 -
Ahmad Nur Hardianto Persita Ativo 82 / 79 40% 1 01.02.2027 -
Yusuke Onishi Albirex Niigata Ativo 63 / 93 40% 1 16.01.2027 -
Ori Hassan Bnei Yehuda Ativo 104 / 79 40% 1 16.01.2027 -
Kiril Todorov Bukhara Ativo 55 / 93 40% 1 01.01.2027 -
Rio Hyon Sagan Tosu Ativo 99 / 83 40% 1 25.12.2026 -
William Walker Hawke's Bay United Ativo 64 / 81 40% 1 21.12.2026 -
Agus Mahendra Bali United Ativo 62 / 64 40% 2 17.12.2026 -
Rian Islomov AGMK Ativo 106 / 79 40% 2 06.12.2026 -
Arion Sulemani Perth Glory Ativo 73 / 97 40% 2 04.12.2026 -
Shodiyor Shodiboyev Lokomotiv Ativo 78 / 87 40% 9 15.11.2026 -
Jaloliddin Sodiqov Navbahor Ativo 112 / 78 40% 2 13.11.2026 -
Keita Fukui Omiya Ardija Ativo 98 / 79 40% 1 04.11.2026 -
Izzatullo Abdulhaqov Mashal Ativo 104 / 104 40% 4 30.10.2026 -
Yali Zohar Beitar Jerusalem Ativo 55 / 67 40% 1 28.10.2026 -
Baek In-Hwan FC Tokyo Ativo 95 / 87 40% 1 26.10.2026 -
Nicolás Roa Vissel Kobe Ativo 75 / 83 40% 2 24.10.2026 -
Dilshodbek Misraliyev Sogdiana Ativo 58 / 74 40% 1 18.10.2026 -
Luka Didulica Urawa Reds Ativo 71 / 66 40% 1 18.10.2026 -
Atonio Tuivuna Lautoka Ativo 44 / 62 40% 1 17.10.2026 -
Sota Yokoyama Vegalta Sendai Ativo 91 / 70 40% 1 09.10.2026 -
Dilshod Abdullayev Pakhtakor Ativo 73 / 85 40% 1 02.10.2026 -
Shalev Gindi Bnei Yehuda Ativo 67 / 81 40% 1 01.10.2026 -
Miras Dilmūrat Shakhter Ativo 73 / 71 40% 1 28.09.2026 -
Reef Amsalem Hapoel Acre Ativo 96 / 88 40% 2 25.09.2026 -
Deklan Wood Ativo 52 / 58 40% 1 12.09.2026 -
Mirziyod Mirodilov Kokand 1912 Ativo 45 / 91 40% 1 05.09.2026 -
Azamat Shomurodov Bukhara Ativo 80 / 63 40% 1 03.09.2026 -
Dony Tri Pamungkas Persija Ativo 75 / 64 40% 1 03.09.2026 -
Ädilet Ömei Taraz Ativo 64 / 79 40% 1 29.08.2026 -
Dimitar Mitkov Madura United Ativo 117 / 105 40% 1 23.08.2026 -
Tair Nurseitov Taraz Ativo 98 / 64 40% 1 19.08.2026 -
Hayata Ishii Vegalta Sendai Ativo 57 / 58 40% 1 13.08.2026 -
Muhriddin Fazliddinov Kokand 1912 Ativo 43 / 56 40% 1 11.08.2026 -
Noah Wood WaiBOP United Ativo 57 / 70 40% 1 05.08.2026 -
Mario Ilich Auckland City Ativo 101 / 72 40% 1 02.08.2026 -
Louis D'Arrigo Melbourne Victory Ativo 86 / 81 40% 1 01.08.2026 -
Corban Piper Wellington Phoenix Ativo 100 / 111 40% 1 01.08.2026 -
Asadbek Jo'raboyev Bukhara Ativo 92 / 79 40% 1 01.08.2026 -